| time (UTC) | temp F | wind direction | speed MPH | gust MPH | rain 1hr in | rain 24hr in | rain mn in | humidity % | barometer mb |
| 20260906142746 | 65 | 45 | 6.0 | 13.0 | 0.00 | 0.00 | 0.00 | 70 | 1014.9 |
| 20260906142119 | 65 | 68 | 9.0 | 13.0 | 0.00 | 0.00 | 0.00 | 69 | 1014.9 |
| 20260906140732 | 68 | 45 | 10.0 | 21.0 | 0.00 | 0.00 | 0.00 | 63 | 1014.9 |
| 20260906135332 | 67 | 90 | 11.0 | 22.0 | 0.00 | 0.00 | 0.00 | 68 | 1014.6 |
| 20260906134551 | 68 | 68 | 8.0 | 17.0 | 0.00 | 0.00 | 0.00 | 67 | 1014.6 |
| 20260906133903 | 67 | 68 | 7.0 | 15.0 | 0.00 | 0.00 | 0.00 | 72 | 1014.9 |
| 20260906133233 | 65 | 359 | 0.0 | 0.0 | 0.00 | 0.00 | 0.00 | 75 | 1014.9 |
| 20260906132448 | 62 | 45 | 6.0 | 12.0 | 0.00 | 0.00 | 0.00 | 77 | 1015.0 |
| 20260906131812 | 62 | 45 | 9.0 | 18.0 | 0.00 | 0.00 | 0.00 | 77 | 1014.6 |
| 20260906130433 | 61 | 45 | 8.0 | 14.0 | 0.00 | 0.00 | 0.00 | 77 | 1014.6 |
| 20260906124949 | 65 | 45 | 10.0 | 19.0 | 0.00 | 0.00 | 0.00 | 67 | 1014.2 |
| 20260906124249 | 66 | 68 | 7.0 | 14.0 | 0.00 | 0.00 | 0.00 | 64 | 1014.2 |
| 20260906123621 | 66 | 90 | 9.0 | 14.0 | 0.00 | 0.00 | 0.00 | 62 | 1014.1 |
| 20260906122905 | 68 | 68 | 8.0 | 15.0 | 0.00 | 0.00 | 0.00 | 61 | 1014.0 |
| 20260906121450 | 65 | 90 | 8.0 | 14.0 | 0.00 | 0.00 | 0.00 | 66 | 1013.9 |
| 20260906120806 | 64 | 68 | 8.0 | 15.0 | 0.00 | 0.00 | 0.00 | 69 | 1013.9 |
| 20260906115435 | 66 | 90 | 8.0 | 13.0 | 0.00 | 0.00 | 0.00 | 67 | 1013.9 |
| 20260906114722 | 67 | 359 | 0.0 | 0.0 | 0.00 | 0.00 | 0.00 | 67 | 1013.6 |
| 20260906113303 | 65 | 45 | 9.0 | 14.0 | 0.00 | 0.00 | 0.00 | 71 | 1013.7 |
| 20260906112631 | 65 | 45 | 9.0 | 17.0 | 0.00 | 0.00 | 0.00 | 73 | 1013.6 |
| 20260906111911 | 63 | 68 | 8.0 | 16.0 | 0.00 | 0.00 | 0.00 | 75 | 1013.5 |
| 20260906111204 | 63 | 90 | 11.0 | 19.0 | 0.00 | 0.00 | 0.00 | 72 | 1013.5 |
| 20260906110459 | 65 | 68 | 9.0 | 17.0 | 0.00 | 0.00 | 0.00 | 72 | 1013.3 |
| 20260906105752 | 64 | 68 | 9.0 | 17.0 | 0.00 | 0.00 | 0.00 | 69 | 1013.1 |
| 20260906105052 | 65 | 90 | 7.0 | 14.0 | 0.00 | 0.00 | 0.00 | 68 | 1013.2 |
| 20260906104352 | 64 | 90 | 8.0 | 18.0 | 0.00 | 0.00 | 0.00 | 68 | 1013.1 |
| 20260906103700 | 65 | 68 | 9.0 | 18.0 | 0.00 | 0.00 | 0.00 | 66 | 1013.0 |
| 20260906102952 | 67 | 68 | 9.0 | 16.0 | 0.00 | 0.00 | 0.00 | 63 | 1012.8 |
| 20260906102320 | 67 | 68 | 9.0 | 16.0 | 0.00 | 0.00 | 0.00 | 65 | 1012.6 |
| 20260906101625 | 66 | 68 | 9.0 | 18.0 | 0.00 | 0.00 | 0.00 | 70 | 1012.6 |
| 20260906100929 | 63 | 45 | 9.0 | 16.0 | 0.00 | 0.00 | 0.00 | 75 | 1012.6 |
| 20260906100238 | 61 | 68 | 5.0 | 13.0 | 0.00 | 0.00 | 0.00 | 80 | 1012.5 |
| 20260906095509 | 61 | 68 | 11.0 | 18.0 | 0.00 | 0.00 | 0.00 | 73 | 1012.6 |
| 20260906094821 | 65 | 68 | 10.0 | 17.0 | 0.00 | 0.00 | 0.00 | 66 | 1012.2 |
| 20260906094058 | 64 | 68 | 9.0 | 14.0 | 0.00 | 0.00 | 0.00 | 68 | 1012.0 |
| 20260906093406 | 64 | 68 | 10.0 | 20.0 | 0.00 | 0.00 | 0.00 | 67 | 1012.2 |
| 20260906092654 | 63 | 68 | 10.0 | 16.0 | 0.00 | 0.00 | 0.00 | 71 | 1012.0 |
| 20260906092039 | 63 | 68 | 9.0 | 15.0 | 0.00 | 0.00 | 0.00 | 72 | 1011.9 |
| 20260906091254 | 62 | 68 | 7.0 | 14.0 | 0.00 | 0.00 | 0.00 | 75 | 1012.0 |
| 20260906090639 | 60 | 68 | 7.0 | 13.0 | 0.00 | 0.00 | 0.00 | 78 | 1012.0 |
| 20260906085855 | 59 | 68 | 9.0 | 17.0 | 0.00 | 0.00 | 0.00 | 80 | 1012.0 |
| 20260906085211 | 58 | 68 | 8.0 | 17.0 | 0.00 | 0.00 | 0.00 | 82 | 1011.7 |
| 20260906084455 | 58 | 68 | 9.0 | 18.0 | 0.00 | 0.00 | 0.00 | 81 | 1011.9 |
| 20260906083840 | 59 | 90 | 11.0 | 18.0 | 0.00 | 0.00 | 0.00 | 77 | 1011.8 |
| 20260906083119 | 60 | 68 | 10.0 | 16.0 | 0.00 | 0.00 | 0.00 | 76 | 1011.6 |
| 20260906082359 | 59 | 90 | 12.0 | 19.0 | 0.00 | 0.00 | 0.00 | 75 | 1011.4 |
| 20260906081656 | 59 | 68 | 9.0 | 15.0 | 0.00 | 0.00 | 0.00 | 76 | 1011.2 |
| 20260906080256 | 58 | 68 | 10.0 | 17.0 | 0.00 | 0.00 | 0.00 | 79 | 1011.0 |
| 20260906075641 | 59 | 68 | 13.0 | 20.0 | 0.00 | 0.00 | 0.00 | 76 | 1010.9 |
| 20260906074908 | 59 | 68 | 10.0 | 17.0 | 0.00 | 0.00 | 0.00 | 75 | 1010.8 |
| 20260906074156 | 58 | 68 | 9.0 | 20.0 | 0.00 | 0.00 | 0.00 | 76 | 1010.7 |
| 20260906073542 | 59 | 68 | 11.0 | 18.0 | 0.00 | 0.00 | 0.00 | 74 | 1010.7 |
| 20260906072842 | 59 | 90 | 9.0 | 14.0 | 0.00 | 0.00 | 0.00 | 75 | 1010.4 |
| 20260906072117 | 60 | 90 | 9.0 | 17.0 | 0.00 | 0.00 | 0.00 | 73 | 1010.4 |
| 20260906071401 | 60 | 45 | 10.0 | 24.0 | 0.00 | 0.00 | 0.00 | 73 | 1010.1 |
| 20260906070701 | 60 | 45 | 12.0 | 24.0 | 0.00 | 0.00 | 0.00 | 76 | 1010.1 |
| 20260906065957 | 59 | 45 | 10.0 | 20.0 | 0.00 | 0.00 | 0.00 | 77 | 1010.1 |
| 20260906065326 | 58 | 68 | 8.0 | 13.0 | 0.00 | 0.00 | 0.00 | 79 | 1010.1 |
| 20260906064610 | 57 | 68 | 7.0 | 14.0 | 0.00 | 0.00 | 0.00 | 80 | 1009.9 |
| 20260906063858 | 56 | 45 | 8.0 | 17.0 | 0.00 | 0.00 | 0.00 | 81 | 1010.0 |
| 20260906063158 | 56 | 45 | 10.0 | 18.0 | 0.00 | 0.00 | 0.00 | 82 | 1009.9 |
| 20260906062458 | 56 | 68 | 10.0 | 20.0 | 0.00 | 0.00 | 0.00 | 82 | 1009.9 |
| 20260906060359 | 56 | 68 | 9.0 | 17.0 | 0.00 | 0.00 | 0.00 | 80 | 1009.6 |
| 20260906055659 | 56 | 45 | 10.0 | 18.0 | 0.00 | 0.00 | 0.00 | 80 | 1009.5 |
| 20260906055015 | 56 | 23 | 9.0 | 18.0 | 0.00 | 0.00 | 0.00 | 80 | 1009.6 |
| 20260906054304 | 56 | 68 | 10.0 | 17.0 | 0.00 | 0.00 | 0.00 | 81 | 1009.5 |
| 20260906053645 | 56 | 23 | 9.0 | 17.0 | 0.00 | 0.00 | 0.00 | 81 | 1009.5 |
| 20260906052916 | 56 | 23 | 11.0 | 19.0 | 0.00 | 0.00 | 0.00 | 81 | 1009.4 |
| 20260906051500 | 56 | 45 | 9.0 | 16.0 | 0.00 | 0.00 | 0.00 | 81 | 1009.3 |
| 20260906050812 | 56 | 45 | 8.0 | 17.0 | 0.00 | 0.00 | 0.00 | 81 | 1009.3 |
| 20260906050100 | 56 | 45 | 9.0 | 18.0 | 0.00 | 0.00 | 0.00 | 82 | 1009.2 |
| 20260906045401 | 56 | 45 | 11.0 | 18.0 | 0.00 | 0.00 | 0.00 | 82 | 1009.2 |
| 20260906044705 | 55 | 45 | 10.0 | 17.0 | 0.00 | 0.00 | 0.00 | 82 | 1009.0 |
| 20260906044005 | 55 | 45 | 8.0 | 16.0 | 0.00 | 0.00 | 0.00 | 83 | 1008.9 |
| 20260906043309 | 55 | 68 | 7.0 | 16.0 | 0.00 | 0.00 | 0.00 | 83 | 1009.0 |
| 20260906042601 | 55 | 45 | 8.0 | 16.0 | 0.00 | 0.00 | 0.00 | 84 | 1008.9 |
| 20260906041902 | 55 | 45 | 7.0 | 15.0 | 0.00 | 0.00 | 0.00 | 84 | 1008.8 |
| 20260906041205 | 55 | 45 | 9.0 | 17.0 | 0.00 | 0.00 | 0.00 | 84 | 1008.7 |
| 20260906040506 | 55 | 45 | 8.0 | 17.0 | 0.00 | 0.00 | 0.00 | 84 | 1008.6 |
| 20260906035802 | 55 | 45 | 8.0 | 17.0 | 0.00 | 0.00 | 0.00 | 84 | 1008.6 |
| 20260906035106 | 55 | 68 | 7.0 | 13.0 | 0.00 | 0.00 | 0.00 | 84 | 1008.8 |
| 20260906034402 | 55 | 45 | 6.0 | 12.0 | 0.00 | 0.00 | 0.00 | 84 | 1008.8 |
| 20260906033702 | 55 | 23 | 9.0 | 15.0 | 0.00 | 0.00 | 0.00 | 84 | 1008.6 |
| 20260906033010 | 55 | 45 | 7.0 | 13.0 | 0.00 | 0.00 | 0.00 | 84 | 1008.5 |
| 20260906032306 | 55 | 45 | 8.0 | 17.0 | 0.00 | 0.00 | 0.00 | 83 | 1008.5 |
| 20260906031603 | 56 | 45 | 8.0 | 15.0 | 0.00 | 0.00 | 0.00 | 83 | 1008.4 |
| 20260906030911 | 56 | 45 | 7.0 | 15.0 | 0.00 | 0.00 | 0.00 | 83 | 1008.3 |
| 20260906030203 | 56 | 45 | 7.0 | 14.0 | 0.00 | 0.00 | 0.00 | 83 | 1008.2 |
| 20260906025548 | 56 | 90 | 7.0 | 14.0 | 0.00 | 0.00 | 0.00 | 83 | 1008.3 |
| 20260906024804 | 56 | 359 | 0.0 | 0.0 | 0.00 | 0.00 | 0.00 | 83 | 1008.2 |
| 20260906024149 | 56 | 359 | 0.0 | 0.0 | 0.00 | 0.00 | 0.00 | 83 | 1008.1 |
| 20260906023444 | 212 | 359 | 0.0 | 0.0 | 0.00 | 0.00 | 0.00 | 100 | |
| 20260906022740 | 56 | 68 | 8.0 | 13.0 | 0.00 | 0.00 | 0.00 | 83 | 1008.0 |
| 20260906022049 | 56 | 90 | 8.0 | 14.0 | 0.00 | 0.00 | 0.00 | 84 | 1008.0 |
| 20260906021349 | 56 | 45 | 7.0 | 13.0 | 0.00 | 0.00 | 0.00 | 85 | 1008.0 |
| 20260906020650 | 56 | 45 | 6.0 | 11.0 | 0.00 | 0.00 | 0.00 | 85 | 1008.0 |
| 20260906015950 | 56 | 45 | 7.0 | 11.0 | 0.00 | 0.00 | 0.00 | 85 | 1007.9 |
| 20260906014518 | 56 | 45 | 7.0 | 16.0 | 0.00 | 0.00 | 0.00 | 86 | 1007.8 |
| 20260906013150 | 56 | 45 | 7.0 | 11.0 | 0.00 | 0.00 | 0.00 | 86 | 1007.9 |
| 20260906012451 | 56 | 45 | 7.0 | 13.0 | 0.00 | 0.00 | 0.00 | 86 | 1007.9 |
| 20260906011751 | 56 | 45 | 5.0 | 13.0 | 0.00 | 0.00 | 0.00 | 86 | 1007.8 |
| 20260906011051 | 55 | 23 | 6.0 | 11.0 | 0.00 | 0.00 | 0.00 | 87 | 1007.7 |
| 20260906010351 | 55 | 23 | 6.0 | 12.0 | 0.00 | 0.00 | 0.00 | 87 | 1007.7 |
| 20260906005626 | 55 | 23 | 7.0 | 13.0 | 0.00 | 0.00 | 0.00 | 87 | 1007.7 |
| 20260906004952 | 55 | 68 | 6.0 | 13.0 | 0.00 | 0.00 | 0.00 | 88 | 1007.7 |
| 20260906004252 | 55 | 23 | 7.0 | 11.0 | 0.00 | 0.00 | 0.00 | 88 | 1007.7 |
| 20260906003552 | 55 | 45 | 6.0 | 14.0 | 0.00 | 0.00 | 0.00 | 88 | 1007.8 |
| 20260906002852 | 55 | 45 | 8.0 | 15.0 | 0.00 | 0.00 | 0.00 | 88 | 1007.8 |
| 20260906001453 | 55 | 45 | 7.0 | 14.0 | 0.00 | 0.00 | 0.00 | 89 | 1007.9 |
| 20260906000708 | 54 | 23 | 9.0 | 14.0 | 0.00 | 0.00 | 0.00 | 89 | 1007.9 |
| 20260906000053 | 54 | 45 | 6.0 | 12.0 | 0.00 | 0.00 | 0.00 | 89 | 1007.9 |
| 20260905235308 | 54 | 23 | 9.0 | 14.0 | 0.00 | 0.00 | 0.00 | 89 | 1007.8 |
| 20260905234653 | 54 | 45 | 9.0 | 15.0 | 0.00 | 0.00 | 0.00 | 88 | 1007.7 |
| 20260905233953 | 54 | 45 | 7.0 | 16.0 | 0.00 | 0.00 | 0.00 | 88 | 1007.6 |
| 20260905233252 | 54 | 45 | 8.0 | 16.0 | 0.00 | 0.00 | 0.00 | 88 | 1007.6 |
| 20260905232554 | 54 | 359 | 0.0 | 0.0 | 0.00 | 0.00 | 0.00 | 88 | 1007.5 |
| 20260905231854 | 54 | 23 | 7.0 | 14.0 | 0.00 | 0.00 | 0.00 | 88 | 1007.6 |
| 20260905231154 | 54 | 23 | 9.0 | 16.0 | 0.00 | 0.00 | 0.00 | 88 | 1007.5 |
| 20260905230454 | 54 | 45 | 7.0 | 17.0 | 0.00 | 0.00 | 0.00 | 88 | 1007.6 |
| 20260905225054 | 54 | 45 | 6.0 | 13.0 | 0.00 | 0.00 | 0.00 | 87 | 1007.3 |
| 20260905224355 | 55 | 23 | 7.0 | 12.0 | 0.00 | 0.00 | 0.00 | 87 | 1007.4 |
| 20260905223610 | 55 | 45 | 7.0 | 13.0 | 0.00 | 0.00 | 0.00 | 87 | 1007.3 |
| 20260905222238 | 55 | 23 | 7.0 | 14.0 | 0.00 | 0.00 | 0.00 | 87 | 1007.4 |
| 20260905221556 | 55 | 23 | 6.0 | 16.0 | 0.00 | 0.00 | 0.00 | 87 | 1007.3 |
| 20260905220855 | 54 | 23 | 8.0 | 16.0 | 0.00 | 0.00 | 0.00 | 87 | 1007.3 |
| 20260905220151 | 55 | 23 | 7.0 | 12.0 | 0.00 | 0.00 | 0.00 | 86 | 1007.2 |
| 20260905215411 | 55 | 45 | 6.0 | 13.0 | 0.00 | 0.00 | 0.00 | 86 | 1007.2 |
| 20260905214056 | 55 | 45 | 8.0 | 17.0 | 0.00 | 0.00 | 0.00 | 85 | 1007.1 |
| 20260905213356 | 55 | 45 | 7.0 | 16.0 | 0.00 | 0.00 | 0.00 | 85 | 1007.0 |
| 20260905212657 | 55 | 45 | 6.0 | 13.0 | 0.00 | 0.00 | 0.00 | 85 | 1007.0 |
| 20260905211957 | 55 | 23 | 6.0 | 11.0 | 0.00 | 0.00 | 0.00 | 85 | 1007.1 |
| 20260905211257 | 56 | 23 | 7.0 | 13.0 | 0.00 | 0.00 | 0.00 | 84 | 1007.1 |
| 20260905210557 | 56 | 45 | 9.0 | 16.0 | 0.00 | 0.00 | 0.00 | 83 | 1006.9 |
| 20260905205857 | 56 | 45 | 8.0 | 16.0 | 0.00 | 0.00 | 0.00 | 82 | 1006.9 |
| 20260905205157 | 56 | 45 | 9.0 | 16.0 | 0.00 | 0.00 | 0.00 | 82 | 1006.8 |
| 20260905204458 | 56 | 45 | 8.0 | 14.0 | 0.00 | 0.00 | 0.00 | 82 | 1006.7 |
| 20260905203758 | 57 | 45 | 6.0 | 15.0 | 0.00 | 0.00 | 0.00 | 82 | 1006.6 |
| 20260905203058 | 57 | 45 | 6.0 | 13.0 | 0.00 | 0.00 | 0.00 | 82 | 1006.6 |
| 20260905202358 | 57 | 45 | 4.0 | 10.0 | 0.00 | 0.00 | 0.00 | 80 | 1006.7 |
| 20260905200945 | 57 | 90 | 1.0 | 7.0 | 0.00 | 0.00 | 0.00 | 78 | 1006.5 |
| 20260905200226 | 58 | 68 | 5.0 | 10.0 | 0.00 | 0.00 | 0.00 | 76 | 1006.4 |
| 20260905195534 | 58 | 90 | 4.0 | 9.0 | 0.00 | 0.00 | 0.00 | 75 | 1006.3 |
| 20260905194818 | 59 | 68 | 5.0 | 12.0 | 0.00 | 0.00 | 0.00 | 75 | 1006.3 |
| 20260905194159 | 59 | 68 | 6.0 | 13.0 | 0.00 | 0.00 | 0.00 | 75 | 1006.4 |
| 20260905193500 | 60 | 68 | 5.0 | 12.0 | 0.00 | 0.00 | 0.00 | 76 | 1006.4 |
| 20260905192800 | 60 | 68 | 6.0 | 13.0 | 0.00 | 0.00 | 0.00 | 75 | 1006.3 |
| 20260905192100 | 60 | 68 | 9.0 | 15.0 | 0.00 | 0.00 | 0.00 | 75 | 1006.3 |
| 20260905191400 | 59 | 45 | 10.0 | 18.0 | 0.00 | 0.00 | 0.00 | 76 | 1006.1 |
| 20260905190627 | 59 | 23 | 9.0 | 21.0 | 0.00 | 0.00 | 0.00 | 77 | 1006.0 |
| 20260905185215 | 58 | 23 | 9.0 | 15.0 | 0.00 | 0.00 | 0.00 | 81 | 1006.0 |
| 20260905184532 | 57 | 23 | 7.0 | 13.0 | 0.00 | 0.00 | 0.00 | 83 | 1006.2 |
| 20260905183844 | 57 | 23 | 8.0 | 14.0 | 0.00 | 0.00 | 0.00 | 84 | 1006.1 |
| 20260905183201 | 57 | 0 | 6.0 | 10.0 | 0.00 | 0.00 | 0.00 | 84 | 1006.2 |
| 20260905182416 | 57 | 0 | 5.0 | 9.0 | 0.00 | 0.02 | 0.00 | 83 | 1006.1 |
| 20260905181102 | 57 | 23 | 3.0 | 7.0 | 0.00 | 0.02 | 0.00 | 80 | 1006.5 |
| 20260905180402 | 58 | 23 | 2.0 | 6.0 | 0.00 | 0.02 | 0.00 | 78 | 1006.3 |
| 20260905174929 | 59 | 23 | 4.0 | 8.0 | 0.00 | 0.02 | 0.00 | 75 | 1006.1 |
| 20260905174302 | 59 | 23 | 4.0 | 7.0 | 0.00 | 0.02 | 0.00 | 75 | 1005.9 |
| 20260905173603 | 59 | 23 | 3.0 | 6.0 | 0.00 | 0.02 | 0.00 | 73 | 1006.0 |
| 20260905172902 | 60 | 45 | 2.0 | 7.0 | 0.00 | 0.02 | 0.00 | 72 | 1006.0 |
| 20260905172203 | 60 | 45 | 3.0 | 9.0 | 0.00 | 0.02 | 0.00 | 71 | 1005.9 |
| 20260905170722 | 61 | 45 | 5.0 | 11.0 | 0.00 | 0.02 | 0.00 | 69 | 1005.8 |
| 20260905165339 | 63 | 23 | 6.0 | 13.0 | 0.00 | 0.02 | 0.00 | 67 | 1005.7 |
| 20260905164631 | 64 | 23 | 5.0 | 11.0 | 0.00 | 0.02 | 0.00 | 66 | 1005.9 |
| 20260905163959 | 64 | 23 | 6.0 | 13.0 | 0.00 | 0.02 | 0.00 | 67 | 1005.9 |
| 20260905163219 | 62 | 45 | 10.0 | 15.0 | 0.00 | 0.02 | 0.00 | 69 | 1005.7 |
| 20260905162539 | 63 | 23 | 10.0 | 18.0 | 0.00 | 0.02 | 0.00 | 66 | 1005.5 |
| 20260905161904 | 62 | 23 | 7.0 | 12.0 | 0.00 | 0.02 | 0.00 | 66 | 1005.6 |
| 20260905161205 | 62 | 23 | 7.0 | 14.0 | 0.00 | 0.02 | 0.00 | 66 | 1005.6 |
| 20260905160505 | 62 | 45 | 6.0 | 14.0 | 0.00 | 0.02 | 0.00 | 66 | 1005.5 |
| 20260905155024 | 63 | 23 | 7.0 | 13.0 | 0.00 | 0.02 | 0.00 | 63 | 1005.6 |
| 20260905154324 | 64 | 23 | 8.0 | 23.0 | 0.00 | 0.02 | 0.00 | 62 | 1005.3 |
| 20260905153625 | 63 | 45 | 8.0 | 16.0 | 0.00 | 0.02 | 0.00 | 63 | 1005.4 |
| 20260905152921 | 62 | 45 | 9.0 | 17.0 | 0.00 | 0.02 | 0.00 | 64 | 1005.4 |
| 20260905152225 | 62 | 23 | 10.0 | 15.0 | 0.00 | 0.02 | 0.00 | 64 | 1005.2 |
| 20260905151606 | 62 | 23 | 11.0 | 20.0 | 0.00 | 0.02 | 0.00 | 63 | 1005.6 |
| 20260905150157 | 63 | 23 | 13.0 | 19.0 | 0.00 | 0.02 | 0.00 | 64 | 1005.6 |
| 20260905145426 | 64 | 45 | 13.0 | 21.0 | 0.00 | 0.02 | 0.00 | 63 | 1005.6 |
| 20260905144729 | 64 | 23 | 14.0 | 24.0 | 0.00 | 0.02 | 0.00 | 60 | 1005.6 |
| 20260905144030 | 65 | 23 | 14.0 | 23.0 | 0.00 | 0.02 | 0.00 | 59 | 1005.3 |
| 20260905143322 | 66 | 23 | 14.0 | 20.0 | 0.00 | 0.02 | 0.00 | 56 | 1005.1 |